Location: Atlantic Beach
(40.5890°N, 73.7290°W)
Time: 13:30:14
(UTC+00:00)

Cosmos 2278 - Pass Details

Date: 29 October 2020
Orbit: 841 x 851 km, 71.1° (Epoch: 01 December)

Event Time Altitude Azimuth Distance (km) Brightness Sun altitude
Rises 23:06:18 0° 182° (S) 3,396 7.0 -14.2°
Reaches altitude 10° 23:08:51 10° 175° (S) 2,463 6.1 -14.6°
Maximum altitude 23:14:08 42° 106° (ESE) 1,189 4.0 -15.6°
Enters shadow 23:18:33 15° 41° (NE) 2,165 5.4 -16.5°
